Home   Weather   Périgueux   Past weeks

Flag for France Past Weather in Périgueux, Aquitaine, France — Yesterday and Last 2 Weeks

Now
61 °F

Rain. Broken clouds.


Feels Like: 61 °F
Forecast: 49 / 66 °F
Wind: 3 mph from North

Location: Bergerac Airport

Current Time: Oct 1, 2016 at 9:07:41 AM

Latest Report: Oct 1, 2016 at 8:30 AM


Visibility: 4 mi

Pressure: 29.92 "Hg

Humidity: 94%

Dew Point: 59 °F

Location of PérigueuxLocation

Past Weather in Périgueux — Graph

°F

Périgueux Temperature Yesterday

Maximum temperature yesterday: 81 °F (at 3:30 PM)
Minimum temperature yesterday: 55 °F (at 4:30 AM)
Average temperature yesterday: 67 °F

High & Low Weather Summary for the Past Weeks

 TemperatureHumidityPressure
High84 °F (Sep 24, 4:00 PM)100% (Sep 18, 5:00 AM)30.45 "Hg (Sep 18, 5:00 AM)
Low43 °F (Sep 27, 5:30 AM)29% (Sep 29, 3:30 PM)29.89 "Hg (Sep 30, 5:30 PM)
Average62 °F74%30.15 "Hg
* Reported Sep 16 8:00 AM — Oct 1 8:00 AM, Périgueux, Weather by CustomWeather, © 2016

Note: Actual official high and low records may vary slightly from our data, if they occured in-between our weather recording intervals... More about our weather records

Advertising

Périgueux Weather History for the Previous 24 Hours

Scroll right to see more
 ConditionsComfort  
Time TempWeatherWind HumidityBarometerVisibility
8:00 AM
Sat, Oct 1
61 °FLight rain. Partly sunny.5 mph94%29.92 "HgN/A
7:30 AM61 °FRain. Partly cloudy.5 mph94%29.89 "Hg6 mi
7:00 AM61 °FRain. Passing clouds.2 mph94%29.89 "Hg4 mi
6:30 AM61 °FRain. Overcast.5 mph94%29.89 "Hg4 mi
6:00 AM61 °FHeavy rain. Mostly cloudy.3 mph94%29.89 "Hg4 mi
5:30 AM61 °FRain. Passing clouds.2 mph94%29.92 "HgN/A
5:00 AM61 °FLight rain. Overcast.5 mph94%29.89 "HgN/A
4:30 AM61 °FRain. Overcast.3 mph100%29.89 "Hg4 mi
4:00 AM61 °FLight rain. Overcast.6 mph100%29.89 "Hg4 mi
3:30 AM61 °FHeavy rain. Fog.6 mph100%29.92 "Hg3 mi
3:00 AM61 °FRain. Fog.2 mph100%29.92 "Hg3 mi
2:30 AM61 °FRain. Overcast.2 mph100%29.92 "Hg4 mi
2:00 AM63 °FThundershowers. Partly cloudy.3 mph94%29.92 "HgN/A
1:30 AM63 °FThundershowers. Fog.9 mph94%29.92 "Hg2 mi
1:00 AM63 °FThundershowers. Passing clouds.7 mph94%29.95 "Hg5 mi
12:30 AM64 °FStrong thunderstorms. Fog.17 mph88%29.92 "Hg3 mi
12:00 AM66 °FMild.6 mph83%29.89 "HgN/A
11:30 PM
Fri, Sep 30
66 °FMild.2 mph78%29.89 "HgN/A
11:00 PM68 °FClear.6 mph73%29.89 "Hg10 mi
10:30 PM64 °FClear.3 mph83%29.89 "Hg10 mi
10:00 PM66 °FClear.2 mph78%29.89 "Hg10 mi
9:30 PM66 °FClear.1 mph78%29.89 "Hg10 mi
9:00 PM66 °FClear.No wind78%29.89 "Hg10 mi
8:30 PM68 °FClear.1 mph73%29.89 "Hg10 mi
8:00 PM70 °FClear.2 mph69%29.89 "Hg10 mi
7:30 PM73 °FSunny.No wind61%29.89 "Hg10 mi
7:00 PM75 °FSunny.No wind57%29.89 "Hg10 mi
6:30 PM77 °FSunny.2 mph54%29.89 "Hg10 mi
6:00 PM79 °FSunny.1 mph48%29.89 "Hg10 mi
5:30 PM79 °FSunny.3 mph51%29.89 "Hg10 mi
5:00 PM79 °FPassing clouds.6 mph48%29.92 "HgN/A
4:30 PM81 °FPassing clouds.6 mph45%29.92 "HgN/A
4:00 PM81 °FPassing clouds.8 mph48%29.92 "HgN/A
3:30 PM81 °FPassing clouds.6 mph45%29.95 "HgN/A
3:00 PM79 °FPassing clouds.6 mph51%29.95 "HgN/A
2:30 PM77 °FPassing clouds.8 mph57%29.98 "HgN/A
2:00 PM77 °FPassing clouds.7 mph57%30.01 "HgN/A
1:30 PM75 °FOvercast.8 mph61%30.01 "HgN/A
1:00 PM75 °FMostly cloudy.10 mph61%30.01 "HgN/A
12:30 PM73 °FPassing clouds.9 mph65%30.04 "HgN/A
12:00 PM72 °FPassing clouds.8 mph69%30.04 "HgN/A
11:30 AM70 °FPartly sunny.8 mph73%30.04 "HgN/A
11:00 AM68 °FBroken clouds.8 mph73%30.04 "HgN/A
10:30 AM66 °FBroken clouds.5 mph83%30.04 "HgN/A
10:00 AM64 °FMostly cloudy.3 mph88%30.04 "HgN/A
9:30 AM63 °FLight fog.5 mph94%30.04 "Hg5 mi
9:00 AM61 °FFog.3 mph100%30.04 "Hg1 mi
Weather by CustomWeather, © 2016

See weather overviewHow to use our weather pages